Time,TemperatureF,DewpointF,PressureIn,WindDirection,WindDirectionDegrees,WindSpeedMPH,WindSpeedGustMPH,Humidity,HourlyPrecipIn,Conditions,Clouds,dailyrainin,SoftwareType,DateUTC
2013-03-23 00:00:00,29.0,19.0,29.94,West,281,0.0,8.0,68,-99.99,,,-99.99,,2013-03-23 04:00:00,
2013-03-23 00:33:00,29.0,19.0,29.94,West,281,0.0,8.0,68,-99.99,,,-99.99,,2013-03-23 04:33:00,
2013-03-23 00:43:00,29.0,19.0,29.94,West,281,0.0,8.0,68,-99.99,,,-99.99,,2013-03-23 04:43:00,
2013-03-23 00:53:00,29.0,19.0,29.94,West,281,0.0,8.0,68,-99.99,,,-99.99,,2013-03-23 04:53:00,
2013-03-23 01:00:00,30.0,18.0,29.94,West,263,0.0,7.0,62,-99.99,,,-99.99,,2013-03-23 05:00:00,
2013-03-23 01:22:00,30.0,18.0,29.94,West,263,0.0,7.0,62,-99.99,,,-99.99,,2013-03-23 05:22:00,
2013-03-23 01:33:00,30.0,18.0,29.94,West,263,0.0,7.0,62,-99.99,,,-99.99,,2013-03-23 05:33:00,
2013-03-23 01:42:00,30.0,18.0,29.94,West,263,0.0,7.0,62,-99.99,,,-99.99,,2013-03-23 05:42:00,
2013-03-23 01:53:00,30.0,18.0,29.94,West,263,0.0,7.0,62,-99.99,,,-99.99,,2013-03-23 05:53:00,
2013-03-23 02:00:00,29.0,19.0,29.94,WSW,240,0.0,11.0,66,-99.99,,,-99.99,,2013-03-23 06:00:00,
2013-03-23 02:22:00,29.0,19.0,29.94,WSW,240,0.0,11.0,66,-99.99,,,-99.99,,2013-03-23 06:22:00,
2013-03-23 02:32:00,29.0,19.0,29.94,WSW,240,0.0,11.0,66,-99.99,,,-99.99,,2013-03-23 06:32:00,
2013-03-23 02:42:00,29.0,19.0,29.94,WSW,240,0.0,11.0,66,-99.99,,,-99.99,,2013-03-23 06:42:00,
2013-03-23 02:52:00,29.0,19.0,29.94,WSW,240,0.0,11.0,66,-99.99,,,-99.99,,2013-03-23 06:52:00,
2013-03-23 03:00:00,29.0,19.0,29.91,WSW,242,6.0,8.0,68,-99.99,,,-99.99,,2013-03-23 07:00:00,
2013-03-23 03:33:00,29.0,19.0,29.91,WSW,242,6.0,8.0,68,-99.99,,,-99.99,,2013-03-23 07:33:00,
2013-03-23 03:42:00,29.0,19.0,29.91,WSW,242,6.0,8.0,68,-99.99,,,-99.99,,2013-03-23 07:42:00,
2013-03-23 03:52:00,29.0,19.0,29.91,WSW,242,6.0,8.0,68,-99.99,,,-99.99,,2013-03-23 07:52:00,
2013-03-23 04:00:00,28.0,18.0,29.91,West,264,7.0,8.0,67,-99.99,,,-99.99,,2013-03-23 08:00:00,
2013-03-23 04:22:00,28.0,18.0,29.91,West,264,7.0,8.0,67,-99.99,,,-99.99,,2013-03-23 08:22:00,
2013-03-23 04:32:00,28.0,18.0,29.91,West,264,7.0,8.0,67,-99.99,,,-99.99,,2013-03-23 08:32:00,
2013-03-23 04:42:00,28.0,18.0,29.91,West,264,7.0,8.0,67,-99.99,,,-99.99,,2013-03-23 08:42:00,
2013-03-23 04:53:00,28.0,18.0,29.91,West,264,7.0,8.0,67,-99.99,,,-99.99,,2013-03-23 08:53:00,
2013-03-23 05:00:00,28.0,18.0,29.91,West,275,2.0,8.0,67,-99.99,,,-99.99,,2013-03-23 09:00:00,
2013-03-23 05:22:00,28.0,18.0,29.91,West,275,2.0,8.0,67,-99.99,,,-99.99,,2013-03-23 09:22:00,
2013-03-23 05:33:00,28.0,18.0,29.91,West,275,2.0,8.0,67,-99.99,,,-99.99,,2013-03-23 09:33:00,
2013-03-23 05:43:00,28.0,18.0,29.91,West,275,2.0,8.0,67,-99.99,,,-99.99,,2013-03-23 09:43:00,
2013-03-23 05:53:00,28.0,18.0,29.91,West,275,2.0,8.0,67,-99.99,,,-99.99,,2013-03-23 09:53:00,
2013-03-23 06:00:00,27.0,18.0,29.94,WSW,243,2.0,6.0,70,-99.99,,,-99.99,,2013-03-23 10:00:00,
2013-03-23 06:24:00,27.0,18.0,29.94,WSW,243,2.0,6.0,70,-99.99,,,-99.99,,2013-03-23 10:24:00,
2013-03-23 06:34:00,27.0,18.0,29.94,WSW,243,2.0,6.0,70,-99.99,,,-99.99,,2013-03-23 10:34:00,
2013-03-23 06:43:00,27.0,18.0,29.94,WSW,243,2.0,6.0,70,-99.99,,,-99.99,,2013-03-23 10:43:00,
2013-03-23 06:53:00,27.0,18.0,29.94,WSW,243,2.0,6.0,70,-99.99,,,-99.99,,2013-03-23 10:53:00,
2013-03-23 07:00:00,26.0,18.0,29.94,WSW,239,2.0,7.0,76,-99.99,,,-99.99,,2013-03-23 11:00:00,
2013-03-23 07:22:00,26.0,18.0,29.94,WSW,239,2.0,7.0,76,-99.99,,,-99.99,,2013-03-23 11:22:00,
2013-03-23 07:32:00,26.0,18.0,29.94,WSW,239,2.0,7.0,76,-99.99,,,-99.99,,2013-03-23 11:32:00,
2013-03-23 07:42:00,26.0,18.0,29.94,WSW,239,2.0,7.0,76,-99.99,,,-99.99,,2013-03-23 11:42:00,
2013-03-23 07:52:00,26.0,18.0,29.94,WSW,239,2.0,7.0,76,-99.99,,,-99.99,,2013-03-23 11:52:00,
2013-03-23 08:00:00,30.0,20.0,29.94,WSW,246,6.0,6.0,66,-99.99,,,-99.99,,2013-03-23 12:00:00,
2013-03-23 08:22:00,30.0,20.0,29.94,WSW,246,6.0,6.0,66,-99.99,,,-99.99,,2013-03-23 12:22:00,
2013-03-23 08:33:00,30.0,20.0,29.94,WSW,246,6.0,6.0,66,-99.99,,,-99.99,,2013-03-23 12:33:00,
2013-03-23 08:43:00,30.0,20.0,29.94,WSW,246,6.0,6.0,66,-99.99,,,-99.99,,2013-03-23 12:43:00,
2013-03-23 08:53:00,30.0,20.0,29.94,WSW,246,6.0,6.0,66,-99.99,,,-99.99,,2013-03-23 12:53:00,
2013-03-23 09:00:00,35.0,20.0,29.94,NNW,337,5.0,10.0,53,-99.99,,,-99.99,,2013-03-23 13:00:00,
2013-03-23 09:23:00,35.0,20.0,29.94,NNW,337,5.0,10.0,53,-99.99,,,-99.99,,2013-03-23 13:23:00,
2013-03-23 09:33:00,35.0,20.0,29.94,NNW,337,5.0,10.0,53,-99.99,,,-99.99,,2013-03-23 13:33:00,
2013-03-23 09:43:00,35.0,20.0,29.94,NNW,337,5.0,10.0,53,-99.99,,,-99.99,,2013-03-23 13:43:00,
2013-03-23 09:53:00,35.0,20.0,29.94,NNW,337,5.0,10.0,53,-99.99,,,-99.99,,2013-03-23 13:53:00,
2013-03-23 10:00:00,38.0,18.0,29.94,NNW,331,6.0,18.0,45,-99.99,,,-99.99,,2013-03-23 14:00:00,
2013-03-23 10:23:00,38.0,18.0,29.94,NNW,331,6.0,18.0,45,-99.99,,,-99.99,,2013-03-23 14:23:00,
2013-03-23 10:33:00,38.0,18.0,29.94,NNW,331,6.0,18.0,45,-99.99,,,-99.99,,2013-03-23 14:33:00,
2013-03-23 10:43:00,38.0,18.0,29.94,NNW,331,6.0,18.0,45,-99.99,,,-99.99,,2013-03-23 14:43:00,
2013-03-23 10:53:00,38.0,18.0,29.94,NNW,331,6.0,18.0,45,-99.99,,,-99.99,,2013-03-23 14:53:00,
2013-03-23 11:00:00,41.0,18.0,29.94,NW,316,9.0,19.0,40,-99.99,,,-99.99,,2013-03-23 15:00:00,
2013-03-23 11:22:00,41.0,18.0,29.94,NW,316,9.0,19.0,40,-99.99,,,-99.99,,2013-03-23 15:22:00,
2013-03-23 11:34:00,41.0,18.0,29.94,NW,316,9.0,19.0,40,-99.99,,,-99.99,,2013-03-23 15:34:00,
2013-03-23 11:44:00,41.0,18.0,29.94,NW,316,9.0,19.0,40,-99.99,,,-99.99,,2013-03-23 15:44:00,
2013-03-23 11:53:00,41.0,18.0,29.94,NW,316,9.0,19.0,40,-99.99,,,-99.99,,2013-03-23 15:53:00,
2013-03-23 12:00:00,43.0,18.0,29.91,West,279,7.0,19.0,37,-99.99,,,-99.99,,2013-03-23 16:00:00,
2013-03-23 12:23:00,43.0,18.0,29.91,West,279,7.0,19.0,37,-99.99,,,-99.99,,2013-03-23 16:23:00,
2013-03-23 12:33:00,43.0,18.0,29.91,West,279,7.0,19.0,37,-99.99,,,-99.99,,2013-03-23 16:33:00,
2013-03-23 12:43:00,43.0,18.0,29.91,West,279,7.0,19.0,37,-99.99,,,-99.99,,2013-03-23 16:43:00,
2013-03-23 12:54:00,43.0,18.0,29.91,West,279,7.0,19.0,37,-99.99,,,-99.99,,2013-03-23 16:54:00,
2013-03-23 13:00:00,45.0,18.0,29.88,WNW,298,10.0,21.0,33,-99.99,,,-99.99,,2013-03-23 17:00:00,
2013-03-23 13:23:00,45.0,18.0,29.88,WNW,298,10.0,21.0,33,-99.99,,,-99.99,,2013-03-23 17:23:00,
2013-03-23 13:33:00,45.0,18.0,29.88,WNW,298,10.0,21.0,33,-99.99,,,-99.99,,2013-03-23 17:33:00,
2013-03-23 13:43:00,45.0,18.0,29.88,WNW,298,10.0,21.0,33,-99.99,,,-99.99,,2013-03-23 17:43:00,
2013-03-23 13:53:00,45.0,18.0,29.88,WNW,298,10.0,21.0,33,-99.99,,,-99.99,,2013-03-23 17:53:00,
2013-03-23 14:00:00,46.0,18.0,29.85,NNW,329,16.0,22.0,31,-99.99,,,-99.99,,2013-03-23 18:00:00,
2013-03-23 14:23:00,46.0,18.0,29.85,NNW,329,16.0,22.0,31,-99.99,,,-99.99,,2013-03-23 18:23:00,
2013-03-23 14:32:00,46.0,18.0,29.85,NNW,329,16.0,22.0,31,-99.99,,,-99.99,,2013-03-23 18:32:00,
2013-03-23 14:43:00,46.0,18.0,29.85,NNW,329,16.0,22.0,31,-99.99,,,-99.99,,2013-03-23 18:43:00,
2013-03-23 14:53:00,46.0,18.0,29.85,NNW,329,16.0,22.0,31,-99.99,,,-99.99,,2013-03-23 18:53:00,
2013-03-23 15:00:00,48.0,17.0,29.85,NW,322,7.0,25.0,29,-99.99,,,-99.99,,2013-03-23 19:00:00,
2013-03-23 15:23:00,48.0,17.0,29.85,NW,322,7.0,25.0,29,-99.99,,,-99.99,,2013-03-23 19:23:00,
2013-03-23 15:33:00,48.0,17.0,29.85,NW,322,7.0,25.0,29,-99.99,,,-99.99,,2013-03-23 19:33:00,
2013-03-23 15:43:00,48.0,17.0,29.85,NW,322,7.0,25.0,29,-99.99,,,-99.99,,2013-03-23 19:43:00,
2013-03-23 15:53:00,48.0,17.0,29.85,NW,322,7.0,25.0,29,-99.99,,,-99.99,,2013-03-23 19:53:00,
2013-03-23 16:00:00,49.0,17.0,29.85,NNW,346,5.0,23.0,28,-99.99,,,-99.99,,2013-03-23 20:00:00,
2013-03-23 16:23:00,49.0,17.0,29.85,NNW,346,5.0,23.0,28,-99.99,,,-99.99,,2013-03-23 20:23:00,
2013-03-23 16:33:00,49.0,17.0,29.85,NNW,346,5.0,23.0,28,-99.99,,,-99.99,,2013-03-23 20:33:00,
2013-03-23 16:43:00,49.0,17.0,29.85,NNW,346,5.0,23.0,28,-99.99,,,-99.99,,2013-03-23 20:43:00,
2013-03-23 16:53:00,49.0,17.0,29.85,NNW,346,5.0,23.0,28,-99.99,,,-99.99,,2013-03-23 20:53:00,
2013-03-23 17:00:00,49.0,18.0,29.85,NNW,336,11.0,29.0,30,-99.99,,,-99.99,,2013-03-23 21:00:00,
2013-03-23 17:23:00,49.0,18.0,29.85,NNW,336,11.0,29.0,30,-99.99,,,-99.99,,2013-03-23 21:23:00,
2013-03-23 17:33:00,49.0,18.0,29.85,NNW,336,11.0,29.0,30,-99.99,,,-99.99,,2013-03-23 21:33:00,
2013-03-23 17:43:00,49.0,18.0,29.85,NNW,336,11.0,29.0,30,-99.99,,,-99.99,,2013-03-23 21:43:00,
2013-03-23 17:54:00,49.0,18.0,29.85,NNW,336,11.0,29.0,30,-99.99,,,-99.99,,2013-03-23 21:54:00,
2013-03-23 18:00:00,47.0,18.0,29.85,NW,310,10.0,27.0,31,-99.99,,,-99.99,,2013-03-23 22:00:00,
2013-03-23 18:23:00,47.0,18.0,29.85,NW,310,10.0,27.0,31,-99.99,,,-99.99,,2013-03-23 22:23:00,
2013-03-23 18:33:00,47.0,18.0,29.85,NW,310,10.0,27.0,31,-99.99,,,-99.99,,2013-03-23 22:33:00,
2013-03-23 18:43:00,47.0,18.0,29.85,NW,310,10.0,27.0,31,-99.99,,,-99.99,,2013-03-23 22:43:00,
2013-03-23 18:53:00,47.0,18.0,29.85,NW,310,10.0,27.0,31,-99.99,,,-99.99,,2013-03-23 22:53:00,
2013-03-23 19:00:00,45.0,18.0,29.88,NNW,347,10.0,18.0,34,-99.99,,,-99.99,,2013-03-23 23:00:00,
2013-03-23 19:23:00,45.0,18.0,29.88,NNW,347,10.0,18.0,34,-99.99,,,-99.99,,2013-03-23 23:23:00,
2013-03-23 19:33:00,45.0,18.0,29.88,NNW,347,10.0,18.0,34,-99.99,,,-99.99,,2013-03-23 23:33:00,
2013-03-23 19:43:00,45.0,18.0,29.88,NNW,347,10.0,18.0,34,-99.99,,,-99.99,,2013-03-23 23:43:00,
2013-03-23 19:53:00,45.0,18.0,29.88,NNW,347,10.0,18.0,34,-99.99,,,-99.99,,2013-03-23 23:53:00,
2013-03-23 20:00:00,42.0,19.0,29.91,NW,307,0.0,15.0,39,-99.99,,,-99.99,,2013-03-24 00:00:00,
2013-03-23 20:23:00,42.0,19.0,29.91,NW,307,0.0,15.0,39,-99.99,,,-99.99,,2013-03-24 00:23:00,
2013-03-23 20:33:00,42.0,19.0,29.91,NW,307,0.0,15.0,39,-99.99,,,-99.99,,2013-03-24 00:33:00,
2013-03-23 20:42:00,42.0,19.0,29.91,NW,307,0.0,15.0,39,-99.99,,,-99.99,,2013-03-24 00:42:00,
2013-03-23 20:53:00,42.0,19.0,29.91,NW,307,0.0,15.0,39,-99.99,,,-99.99,,2013-03-24 00:53:00,
2013-03-23 21:00:00,41.0,18.0,29.91,NNW,335,6.0,17.0,40,-99.99,,,-99.99,,2013-03-24 01:00:00,
2013-03-23 21:22:00,41.0,18.0,29.91,NNW,335,6.0,17.0,40,-99.99,,,-99.99,,2013-03-24 01:22:00,
2013-03-23 21:33:00,41.0,18.0,29.91,NNW,335,6.0,17.0,40,-99.99,,,-99.99,,2013-03-24 01:33:00,
2013-03-23 21:43:00,41.0,18.0,29.91,NNW,335,6.0,17.0,40,-99.99,,,-99.99,,2013-03-24 01:43:00,
2013-03-23 21:53:00,41.0,18.0,29.91,NNW,335,6.0,17.0,40,-99.99,,,-99.99,,2013-03-24 01:53:00,
2013-03-23 22:00:00,37.0,21.0,29.94,SW,236,0.0,10.0,53,-99.99,,,-99.99,,2013-03-24 02:00:00,
2013-03-23 22:22:00,37.0,21.0,29.94,SW,236,0.0,10.0,53,-99.99,,,-99.99,,2013-03-24 02:22:00,
2013-03-23 22:32:00,37.0,21.0,29.94,SW,236,0.0,10.0,53,-99.99,,,-99.99,,2013-03-24 02:32:00,
2013-03-23 22:43:00,37.0,21.0,29.94,SW,236,0.0,10.0,53,-99.99,,,-99.99,,2013-03-24 02:43:00,
2013-03-23 22:52:00,37.0,21.0,29.94,SW,236,0.0,10.0,53,-99.99,,,-99.99,,2013-03-24 02:52:00,
2013-03-23 23:00:00,37.0,18.0,29.94,NNW,347,5.0,7.0,47,-99.99,,,-99.99,,2013-03-24 03:00:00,
2013-03-23 23:33:00,37.0,18.0,29.94,NNW,347,5.0,7.0,47,-99.99,,,-99.99,,2013-03-24 03:33:00,
2013-03-23 23:43:00,37.0,18.0,29.94,NNW,347,5.0,7.0,47,-99.99,,,-99.99,,2013-03-24 03:43:00,
2013-03-23 23:53:00,37.0,18.0,29.94,NNW,347,5.0,7.0,47,-99.99,,,-99.99,,2013-03-24 03:53:00,